STARLINK-32571, 62055

Orbit data source: Space-Track

STARLINK-32571, 62055 is a payload satellite owned by SpaceX/Seattle (US) in LEO that was launched on Thu, 21 Nov 2024 UTC via an FALCON 9 launch vehicle from the Air Force Eastern Test Range (AFETR). Payload-class satellites include a variety of spacecraft equipped with specific instruments for various scientific and technological missions. These include communications satellites like Starlink; space stations such as the ISS; scientific satellites like the Hubble; Earth observation satellites from companies like Planet Labs, Umbra, and HawkEye 360; GPS; miniature CubeSats for education and research; and military/defense satellites.

Loading next visibility...
Identifier
62055, 2024-216Z
Orbit
LEO
Country
Flag of USUS
Related business
Manufacturer
SpaceX/Seattle
Mission
Operational Commercial Communications
Bus & Motor
STARLINK V2M, Unknown motor
Mass
730 kg wet, ~700 kg dry
Launch date (UTC)
2024-11-21 (1 year ago)
Launch vehicle
FALCON 9
Launch site
Air Force Eastern Test Range (AFETR)
Object type
Payload
Rocket body
Debris
Shape & HBR
Box + 2 Pan, 17.7 m
Radar Cross Section
33.884 m², Large (>1 m²)

Expand to show TLE details & history
Last TLE update: 1 day ago

TLE from 1 day ago
0 STARLINK-32571
1 62055U 24216Z   26123.49581823  .00033083  00000-0  12073-2 0  9999
2 62055  43.0038 306.2781 0002673 270.7115  89.3431 15.27553367 82367
Epoch: 2026-05-03T11:53Z
TLE epoch observation values (Epoch: 2026-05-03T11:53:58.695Z)
Latitude
0.00004°
Longitude
-93.61496°
Altitude
482.884 km
Speed
7.626 km/s
True Right ascension
20h 25m 06s
True Declination
0° 00' 00"
Sunlit
Object was in daylight at epoch
Visualization orbit readout
Latitude
Unknown
Longitude
Unknown
Altitude
Unknown
Speed
Unknown
Apparent Right ascension
Unknown
Apparent Declination
Unknown
Sunlit
N/A
Visualization observer readout
Local Sidereal Time
20:30:11
Azimuth
Unknown
Elevation
Unknown
Doppler factor
Unknown
Orbital elements
Apogee altitude
486.908 km
Perigee altitude
483.239 km
Semi-major axis
6,863.21 km
Eccentricity
0.00027
Inclination
43.0038°
RAAN
306.2781°
Arg. of periapsis
270.7115°
True anomaly
89.37373°
Mean anomaly
89.3431°
Eccentric anomaly
89.35841°
Mean motion
3.81726 °/min
Orbital period
94.31 mins
BSTAR
0.0012073
Loading maneuver chart data...
Computing Atmospheric mass density...
Loading historical data...
Loading historical data...
Loading historical data...
Loading historical data...
Loading historical data...
Loading historical data...
Loading historical data...

Documentation

Showing up to 5 results
|